Vertical_Velocity
-1 -2 -2 -1 -1 -1 -0 0 -1 -1 -2 -0 -1 -1 -0 -1 0 1 -0 -1 -0 0 -0 -0 -0 -0 -1 0 0 0 1 0 -2 -1 -1 0 0 0 -1 -0 -0 -1 -1
-1 -1 -1 -0 -1 -0 -0 -1 -1 -1 1 -1 -1 -2 -2 -2 -0 -0 -1 -1 -0 0 0 1 -0 -1 -0 -2 -1 0 -1 -0 -1 -0 0 1 1 -0 -1 -1 -0 -1 0
-1 -1 -0 -0 -1 0 -1 -0 -2 -1 -2 -1 1 0 -1 -0 0 -1 0 -1 -1 -1 -1 -1 -2 -3 -2 -3 -2 -1 -1 -1 -2 -3 -2 0 -1 -0 -2 1 -1 1 -0
-2 -1 0 -1 -0 -1 -1 -1 -2 -2 -2 -1 -1 -1 -2 -1 -0 2 0 -1 0 -1 -0 1 1 -0 -0 -1 0 1 -0 -2 -1 -1 -1 -1 0 -2 -2 -0 -1 -1 -1
-2 -1 0 -1 -1 -1 -1 -1 -2 -2 1 -1 -1 -1 -2 -1 -0 1 0 1 -0 0 1 -1 -0 -0 -0 -1 -1 -1 -0 1 -0 -0 -1 -2 1 -1 -2 -2 0 -1 -2
-2 0 -1 -1 -1 -1 -1 -0 -1 -2 -1 -0 0 -0 -2 -2 -2 -1 1 -0 -1 -0 0 2 2 0 1 2 0 0 1 1 2 2 2 1 2 2 -2 -1 -0 1 0
-2 -1 -1 -0 -1 -2 -1 -1 -1 -2 -1 -1 -0 0 -0 -2 -1 0 -2 -1 2 0 1 -0 -1 -0 1 -0 -3 0 -0 -1 -0 -1 -1 -0 -0 3 4 3 2 1 4
-1 -0 -1 -1 -2 -2 -2 -1 -1 -1 0 -1 -1 -0 -2 -1 6 -0 -1 -1 -1 -1 -1 -1 -2 -1 -3 -1 -0 0 -1 -1 -2 -1 -1 -1 -2 -3 -1 -1 -3 -3 -2
-1 -1 -1 -1 -2 -1 -1 -0 -1 -0 -0 2 -1 -0 -2 -0 -3 1 1 -0 -1 -2 -3 -1 -1 -1 -1 -2 -1 1 -1 0 -0 -0 -0 -1 -3 -3 -1 0 -1 -5 -4
-1 -1 -1 -1 -1 -1 -0 -0 -1 -0 -1 -0 0 -1 -1 -1 -3 -2 1 1 -2 1 -2 -1 -1 0 -0 -1 -1 -1 0 -1 -1 -1 -1 -1 -1 -1 -0 -2 1 2 -0
-2 -0 -0 -1 -0 -1 -1 -1 -0 -1 -1 -0 -1 -0 1 -2 -1 -4 1 2 -6 0 1 -0 -2 -1 -0 1 -2 -1 -1 -2 -0 1 -0 -1 -1 -1 -0 -2 -1 1 1
-0 -0 -0 -1 -1 -0 -1 -0 -1 -1 -2 -1 -1 -1 -0 -1 1 -1 -4 2 -2 6 -5 -1 5 0 -2 -1 1 -1 1 -0 -1 -2 -1 -0 -0 0 -0 -0 -1 -2 -0
0 1 1 0 -1 -0 -1 -1 0 -0 -1 -1 -1 0 -1 1 -1 0 -3 1 -4 3 1 -0 -2 -2 2 -2 -2 -1 0 -2 1 -0 -1 -2 -2 -1 -0 1 -0 -1 0
-1 -0 -1 -0 -1 -0 0 -0 -1 -1 -2 -1 0 -1 -1 -1 -2 -1 -3 -2 -2 -3 -1 -1 3 2 2 0 0 -1 1 1 -1 -1 -3 -2 -0 0 -0 1 -1 0 -0
-1 -1 -2 -2 -1 -0 -1 -1 -1 -1 -1 -1 0 -1 -1 1 0 0 1 1 -2 -8 -2 13 -3 -2 -1 3 2 -1 -2 -1 -2 1 2 -1 -3 -3 -0 -1 -0 0 -1
-1 -1 -2 -1 -2 -2 -2 -1 -1 -1 -0 -1 -0 1 2 2 -0 -0 1 0 -0 -4 -14 1 5 -1 -4 -4 -1 1 3 -1 1 0 -0 2 2 -2 -4 -4 -5 -4 -2
-1 -1 -0 -0 -1 -1 -2 -1 -0 0 1 1 1 1 0 -2 -0 -0 -2 -1 -0 -2 -14 9 -3 6 -1 -7 -2 -2 3 1 1 -0 1 0 2 1 -2 -2 1 -1 -1
-1 -1 0 -0 -0 -0 -1 -1 -2 -2 -2 -3 -2 -3 -0 -1 2 1 1 2 -4 -0 -8 -10 4 3 -3 1 -2 -2 -2 1 1 6 0 1 -2 -1 2 -0 -1 1 -3
0 0 -1 -1 -0 -1 -0 -0 -2 -1 0 -0 -0 -1 -0 -2 -1 -3 -3 -3 -2 1 -1 -11 -3 -0 1 7 2 -0 1 1 1 2 2 -2 1 0 1 -0 -1 1 2
-0 -1 -2 -2 -1 -1 -1 -1 -0 0 -1 -1 -1 -2 -1 -1 -1 -1 -2 -2 -2 -7 -4 -9 -9 -3 -1 12 0 3 -6 -5 0 5 1 2 2 2 -1 -3 -3 -0 1
0 -1 0 -1 -1 -2 -2 -1 -1 -0 -0 1 1 -1 -1 -2 -2 -1 -4 7 3 1 2 -4 -9 -8 2 -2 -0 7 -13 4 -1 4 -0 3 2 4 4 2 0 -1 -0
-1 -1 -2 -1 2 1 -1 -1 -3 -1 -1 -2 -1 2 2 2 2 1 1 2 2 -6 2 -2 0 -4 6 -3 3 -3 -5 -1 -24 11 -2 -1 2 4 6 4 3 0 3
-0 0 0 -1 1 0 -1 -2 -3 -2 -1 1 -0 -1 1 0 -2 -3 2 2 4 3 -0 1 -9 11 -14 15 7 3 1 -5 -9 12 -4 -17 4 -4 5 3 3 2 1
1 0 0 -2 -3 -1 -1 -0 -2 -2 -1 1 -1 0 -2 1 6 -3 -6 -1 3 5 6 0 -4 -6 0 -3 2 2 6 -3 -4 1 1 -23 11 -3 6 2 3 3 -2
0 0 -1 -1 -3 3 -1 -0 -4 -1 2 3 0 2 -2 -1 4 5 -5 -5 0 8 4 1 -1 -6 -3 1 3 -0 -8 -2 -7 -7 3 4 4 3 5 1 3 1 4
1 -3 -1 -1 -1 -0 -0 0 -2 -7 -4 -4 5 1 3 0 2 5 -2 -4 -10 4 -1 1 2 -0 1 -4 1 11 0 -2 3 -3 2 3 6 3 16 5 3 2 3
Height
3154 3154 3153 3151 3149 3148 3147 3146 3145 3144 3143 3142 3140 3138 3137 3136 3136 3135 3135 3134 3134 3134 3133 3132 3131 3130 3128 3128 3127 3126 3125 3124 3123 3123 3122 3122 3122 3121 3121 3121 3120 3120 3120
3152 3151 3150 3149 3147 3146 3145 3144 3142 3141 3141 3139 3138 3136 3135 3134 3134 3133 3133 3133 3132 3131 3131 3129 3129 3127 3126 3125 3124 3123 3121 3120 3119 3118 3118 3118 3117 3116 3116 3116 3115 3115 3115
3150 3149 3148 3146 3145 3144 3143 3142 3140 3140 3139 3137 3136 3135 3134 3133 3132 3132 3131 3130 3129 3128 3128 3127 3126 3125 3123 3122 3120 3120 3118 3116 3115 3114 3113 3113 3113 3112 3111 3111 3111 3111 3111
3148 3147 3146 3144 3143 3142 3142 3140 3139 3138 3137 3136 3134 3133 3133 3131 3130 3129 3128 3127 3126 3125 3124 3123 3122 3121 3119 3118 3116 3116 3115 3113 3112 3110 3109 3109 3108 3107 3106 3107 3106 3106 3106
3146 3145 3144 3142 3141 3140 3140 3138 3137 3135 3135 3133 3132 3131 3130 3129 3127 3126 3124 3123 3122 3121 3120 3119 3118 3117 3116 3114 3113 3112 3111 3109 3108 3106 3105 3105 3104 3102 3102 3101 3101 3101 3100
3143 3143 3141 3140 3138 3138 3138 3136 3134 3132 3131 3130 3128 3127 3126 3125 3124 3122 3120 3119 3118 3116 3115 3114 3114 3112 3111 3110 3109 3107 3106 3105 3104 3102 3101 3100 3099 3097 3096 3096 3095 3095 3094
3141 3140 3138 3136 3135 3135 3135 3133 3131 3130 3128 3126 3125 3123 3122 3121 3120 3118 3116 3114 3114 3112 3111 3109 3108 3107 3106 3105 3103 3103 3101 3099 3098 3097 3095 3094 3094 3093 3092 3091 3089 3088 3088
3138 3137 3135 3133 3132 3132 3131 3129 3127 3126 3124 3122 3120 3118 3117 3117 3116 3114 3112 3110 3109 3108 3106 3104 3103 3101 3100 3099 3098 3097 3095 3094 3093 3092 3090 3089 3088 3087 3086 3085 3083 3083 3082
3135 3133 3131 3129 3128 3128 3127 3125 3123 3121 3120 3118 3116 3114 3112 3110 3109 3109 3108 3106 3104 3103 3101 3100 3097 3096 3094 3093 3092 3091 3088 3087 3086 3085 3083 3083 3082 3081 3079 3078 3077 3076 3076
3131 3130 3127 3125 3124 3124 3122 3120 3118 3117 3115 3114 3112 3109 3107 3105 3103 3102 3102 3100 3099 3099 3096 3094 3092 3090 3088 3086 3084 3083 3082 3080 3079 3078 3077 3075 3074 3073 3072 3070 3069 3068 3067
3127 3125 3123 3121 3120 3119 3117 3115 3113 3112 3110 3108 3106 3105 3103 3100 3097 3095 3095 3094 3091 3089 3090 3088 3085 3083 3081 3079 3077 3077 3074 3073 3072 3070 3069 3068 3066 3065 3064 3062 3061 3060 3059
3123 3120 3118 3116 3116 3115 3112 3111 3108 3107 3105 3104 3101 3099 3097 3095 3093 3089 3086 3086 3083 3084 3080 3079 3078 3076 3073 3072 3071 3069 3068 3066 3064 3062 3061 3059 3058 3057 3056 3054 3053 3051 3050
3118 3116 3114 3112 3111 3110 3108 3106 3104 3103 3101 3099 3096 3094 3092 3090 3087 3083 3079 3077 3073 3074 3073 3073 3070 3068 3066 3064 3062 3060 3058 3057 3056 3054 3053 3051 3050 3049 3047 3046 3044 3043 3042
3112 3110 3108 3107 3107 3105 3103 3101 3099 3097 3095 3093 3090 3088 3086 3083 3080 3077 3073 3068 3065 3063 3064 3065 3062 3060 3059 3056 3054 3051 3050 3048 3047 3045 3043 3042 3041 3039 3038 3036 3035 3033 3032
3107 3105 3103 3103 3102 3099 3097 3095 3093 3091 3089 3086 3084 3082 3079 3076 3073 3070 3067 3063 3057 3051 3051 3058 3051 3050 3048 3046 3045 3042 3041 3039 3037 3036 3034 3031 3030 3029 3028 3027 3026 3024 3023
3102 3100 3099 3098 3096 3094 3091 3089 3088 3086 3083 3080 3078 3075 3073 3069 3066 3063 3060 3057 3052 3046 3035 3044 3045 3039 3036 3036 3035 3031 3029 3026 3026 3024 3023 3021 3019 3018 3017 3016 3016 3015 3013
3096 3096 3094 3093 3091 3088 3086 3084 3082 3079 3077 3074 3071 3067 3065 3060 3058 3055 3051 3047 3044 3040 3030 3029 3029 3030 3026 3022 3021 3020 3017 3015 3013 3012 3010 3009 3008 3006 3005 3005 3004 3003 3003
3092 3090 3089 3087 3085 3083 3080 3077 3075 3072 3069 3067 3064 3059 3057 3052 3049 3046 3041 3037 3033 3030 3023 3017 3017 3016 3014 3013 3008 3004 3004 3003 3001 3000 2998 2996 2995 2994 2993 2993 2993 2992 2991
3087 3086 3084 3082 3080 3077 3075 3071 3068 3065 3062 3059 3056 3051 3047 3043 3039 3035 3031 3025 3021 3016 3011 3006 3004 3002 3000 2998 2996 2992 2990 2988 2987 2986 2985 2983 2982 2981 2980 2981 2980 2980 2980
3082 3080 3079 3076 3074 3071 3068 3064 3060 3058 3055 3051 3047 3043 3038 3034 3029 3024 3019 3014 3007 3001 2997 2992 2988 2986 2982 2981 2978 2976 2974 2973 2971 2971 2969 2968 2966 2965 2966 2966 2966 2967 2967
3077 3075 3073 3071 3067 3064 3060 3056 3051 3048 3045 3041 3037 3033 3028 3023 3018 3012 3006 3000 2994 2988 2982 2975 2971 2968 2966 2962 2959 2959 2956 2955 2953 2953 2953 2952 2953 2952 2952 2952 2951 2953 2953
3072 3070 3067 3064 3061 3057 3052 3047 3041 3036 3033 3028 3023 3019 3014 3008 3003 2997 2991 2986 2980 2973 2968 2962 2958 2952 2949 2945 2941 2937 2935 2934 2932 2934 2935 2935 2936 2935 2938 2938 2940 2939 2940
3065 3062 3059 3055 3052 3048 3043 3037 3031 3025 3020 3015 3009 3004 2999 2993 2987 2981 2977 2971 2965 2960 2954 2949 2944 2941 2935 2933 2927 2921 2917 2914 2913 2918 2915 2913 2918 2918 2924 2924 2926 2926 2926
3058 3054 3051 3046 3041 3038 3032 3026 3019 3013 3007 3002 2996 2990 2984 2978 2972 2965 2960 2956 2951 2945 2941 2935 2930 2925 2920 2918 2914 2909 2904 2898 2895 2897 2901 2899 2905 2904 2909 2909 2911 2912 2913
3050 3046 3041 3036 3031 3026 3020 3014 3007 3000 2995 2989 2983 2977 2970 2964 2958 2950 2943 2938 2934 2931 2926 2920 2915 2912 2909 2905 2901 2894 2889 2885 2880 2881 2885 2885 2889 2889 2893 2894 2896 2898 2900
3040 3036 3030 3026 3020 3013 3007 3000 2994 2986 2980 2974 2969 2963 2957 2951 2945 2939 2931 2924 2918 2916 2909 2904 2901 2897 2894 2891 2888 2884 2878 2871 2868 2866 2870 2870 2874 2875 2874 2880 2884 2885 2886